B3355 ZGHA-ZGGG

Flight info

Callsign B3355
Flight time 0h 59m
Altitude 25600
Route UBMOG W615 IDAXI R473 BEMAG V5 ENVIP
Aircraft CL60/M-SBDE1E2E3FGHIJ1J4J5J7M3RWXYZ/LB1V1D1

Departure

Time 2026-04-26 02:54
Airport Changsha Huanghua International Airport (ZGHA)

Arrival

Time 2026-04-26 03:53
Airport Guangzhou Baiyun International Airport (ZGGG)
Time Latitude Longitude Altitude Speed Heading
2026-04-26 02:34 28.20380 113.21614 225 ft 0 kts 267°
2026-04-26 02:45 28.20380 113.21613 225 ft 0 kts 267°
2026-04-26 02:45 28.20379 113.21596 225 ft 0 kts 268°
2026-04-26 02:45 28.20379 113.21594 225 ft 0 kts 268°
2026-04-26 02:46 28.20410 113.21568 225 ft 8 kts 354°
2026-04-26 02:46 28.20439 113.21597 225 ft 6 kts 100°
2026-04-26 02:46 28.20438 113.21664 225 ft 11 kts 75°
2026-04-26 02:46 28.20511 113.21689 225 ft 11 kts 359°
2026-04-26 02:47 28.20579 113.21701 225 ft 12 kts 27°
2026-04-26 02:47 28.20609 113.21806 225 ft 15 kts 88°
2026-04-26 02:47 28.20551 113.21876 225 ft 4 kts 177°
2026-04-26 02:48 28.20545 113.21877 225 ft 8 kts 177°
2026-04-26 02:48 28.20083 113.21903 225 ft 126 kts 177°
2026-04-26 02:48 28.19311 113.21950 225 ft 30 kts 176°
2026-04-26 02:48 28.19154 113.21950 225 ft 24 kts 189°
2026-04-26 02:49 28.19005 113.21896 225 ft 21 kts 204°
2026-04-26 02:49 28.18939 113.21816 225 ft 13 kts 288°
2026-04-26 02:49 28.18999 113.21783 225 ft 7 kts 358°
2026-04-26 02:49 28.19067 113.21780 225 ft 11 kts 358°
2026-04-26 02:50 28.19160 113.21775 225 ft 15 kts 357°
2026-04-26 02:50 28.19278 113.21767 225 ft 18 kts 356°
2026-04-26 02:50 28.19419 113.21757 225 ft 20 kts 357°
2026-04-26 02:50 28.19536 113.21750 225 ft 13 kts 357°
2026-04-26 02:51 28.19630 113.21746 225 ft 14 kts 358°
2026-04-26 02:51 28.19744 113.21738 225 ft 17 kts 356°
2026-04-26 02:51 28.19870 113.21730 225 ft 19 kts 356°
2026-04-26 02:51 28.19988 113.21723 225 ft 15 kts 357°
2026-04-26 02:52 28.20107 113.21716 225 ft 18 kts 355°
2026-04-26 02:52 28.20217 113.21707 225 ft 13 kts 356°
2026-04-26 02:52 28.20316 113.21702 225 ft 14 kts 358°
2026-04-26 02:52 28.20415 113.21698 225 ft 14 kts 359°
2026-04-26 02:53 28.20518 113.21694 225 ft 14 kts 357°
2026-04-26 02:53 28.20601 113.21737 225 ft 13 kts 77°
2026-04-26 02:53 28.20603 113.21836 225 ft 12 kts 95°
2026-04-26 02:53 28.20531 113.21877 225 ft 12 kts 177°
2026-04-26 02:54 28.20456 113.21878 225 ft 17 kts 177°
2026-04-26 02:54 28.19932 113.21905 225 ft 133 kts 178°
2026-04-26 02:54 28.18744 113.21983 588 ft 196 kts 176°
2026-04-26 02:54 28.17385 113.22052 1416 ft 209 kts 176°
2026-04-26 02:55 28.15850 113.22141 1853 ft 220 kts 176°
2026-04-26 02:55 28.14355 113.22232 2217 ft 214 kts 176°
2026-04-26 02:55 28.12860 113.22319 2551 ft 221 kts 180°
2026-04-26 02:55 28.11278 113.22452 3607 ft 231 kts 168°
2026-04-26 02:56 28.09880 113.23134 5053 ft 226 kts 146°
2026-04-26 02:56 28.08815 113.24420 6246 ft 234 kts 119°
2026-04-26 02:56 28.08393 113.26174 7350 ft 242 kts 95°
2026-04-26 02:56 28.08274 113.28054 8488 ft 247 kts 92°
2026-04-26 02:57 28.08151 113.30003 9592 ft 253 kts 91°
2026-04-26 02:57 28.08026 113.31968 10645 ft 260 kts 91°
2026-04-26 02:57 28.07894 113.34034 11539 ft 275 kts 91°
2026-04-26 02:57 28.07747 113.36368 11560 ft 324 kts 92°
2026-04-26 02:58 28.07571 113.39075 11861 ft 358 kts 92°
2026-04-26 02:58 28.07380 113.41947 12524 ft 376 kts 92°
2026-04-26 02:58 28.07168 113.44921 13411 ft 384 kts 94°
2026-04-26 02:58 28.06886 113.47517 14172 ft 391 kts 96°
2026-04-26 02:59 28.06652 113.49442 14745 ft 394 kts 96°
2026-04-26 02:59 28.06278 113.52522 15640 ft 400 kts 96°
2026-04-26 02:59 28.05897 113.55658 16433 ft 407 kts 96°
2026-04-26 02:59 28.05500 113.58855 17228 ft 414 kts 98°
2026-04-26 03:00 28.04693 113.62003 18031 ft 420 kts 113°
2026-04-26 03:00 28.03190 113.64834 18762 ft 426 kts 129°
2026-04-26 03:00 28.01045 113.67138 19474 ft 429 kts 147°
2026-04-26 03:00 27.98417 113.68697 20192 ft 429 kts 163°
2026-04-26 03:01 27.95526 113.69370 20921 ft 426 kts 180°
2026-04-26 03:01 27.92565 113.69251 21620 ft 427 kts 189°
2026-04-26 03:01 27.89561 113.68967 22298 ft 432 kts 189°
2026-04-26 03:01 27.86560 113.68695 22945 ft 437 kts 189°
2026-04-26 03:02 27.83514 113.68420 23583 ft 441 kts 189°
2026-04-26 03:02 27.80428 113.68141 24121 ft 448 kts 189°
2026-04-26 03:02 27.77315 113.67862 24703 ft 452 kts 189°
2026-04-26 03:02 27.74160 113.67580 25276 ft 456 kts 189°
2026-04-26 03:03 27.70981 113.67296 25820 ft 460 kts 189°
2026-04-26 03:03 27.67779 113.67010 26302 ft 465 kts 189°
2026-04-26 03:03 27.64537 113.66747 26802 ft 471 kts 187°
2026-04-26 03:03 27.61219 113.66767 27262 ft 478 kts 183°
2026-04-26 03:04 27.57852 113.66859 27576 ft 484 kts 183°
2026-04-26 03:04 27.54459 113.66949 27624 ft 488 kts 183°
2026-04-26 03:04 27.51016 113.67041 27619 ft 486 kts 183°
2026-04-26 03:04 27.47614 113.67133 27623 ft 482 kts 183°
2026-04-26 03:05 27.44286 113.67376 27621 ft 487 kts 177°
2026-04-26 03:05 27.40899 113.67909 27622 ft 496 kts 176°
2026-04-26 03:05 27.37440 113.68464 27624 ft 503 kts 176°
2026-04-26 03:05 27.33926 113.69025 27631 ft 507 kts 176°
2026-04-26 03:06 27.30453 113.69582 27633 ft 507 kts 175°
2026-04-26 03:06 27.26941 113.70143 27632 ft 506 kts 175°
2026-04-26 03:06 27.23453 113.70702 27629 ft 505 kts 176°
2026-04-26 03:06 27.19971 113.71259 27626 ft 505 kts 175°
2026-04-26 03:07 27.16466 113.71820 27625 ft 505 kts 175°
2026-04-26 03:07 27.13000 113.72375 27622 ft 506 kts 175°
2026-04-26 03:07 27.09492 113.72936 27622 ft 506 kts 175°
2026-04-26 03:07 27.05975 113.73498 27618 ft 507 kts 175°
2026-04-26 03:08 27.02520 113.74049 27618 ft 507 kts 175°
2026-04-26 03:08 26.99014 113.74609 27617 ft 506 kts 175°
2026-04-26 03:08 26.95540 113.75163 27622 ft 505 kts 175°
2026-04-26 03:08 26.92060 113.75718 27631 ft 505 kts 175°
2026-04-26 03:09 26.88539 113.76279 27641 ft 504 kts 175°
2026-04-26 03:09 26.85084 113.76828 27649 ft 505 kts 176°
2026-04-26 03:09 26.81592 113.77383 27648 ft 504 kts 175°
2026-04-26 03:09 26.78125 113.77934 27661 ft 504 kts 175°
2026-04-26 03:10 26.74638 113.78506 27670 ft 506 kts 173°
2026-04-26 03:10 26.71242 113.79441 27674 ft 509 kts 167°
2026-04-26 03:10 26.67818 113.80527 27650 ft 510 kts 167°
2026-04-26 03:10 26.64383 113.81608 27665 ft 509 kts 167°
2026-04-26 03:11 26.60983 113.82676 27658 ft 509 kts 167°
2026-04-26 03:11 26.57583 113.83743 27656 ft 509 kts 167°
2026-04-26 03:11 26.54150 113.84821 27654 ft 509 kts 167°
2026-04-26 03:11 26.50751 113.85885 27669 ft 509 kts 167°
2026-04-26 03:12 26.47341 113.86906 27682 ft 508 kts 168°
2026-04-26 03:12 26.43872 113.87910 27680 ft 509 kts 168°
2026-04-26 03:12 26.40478 113.88893 27693 ft 508 kts 168°
2026-04-26 03:12 26.37055 113.89883 27699 ft 508 kts 168°
2026-04-26 03:13 26.33634 113.90872 27717 ft 508 kts 168°
2026-04-26 03:13 26.30202 113.91864 27731 ft 508 kts 168°
2026-04-26 03:13 26.26769 113.92856 27743 ft 509 kts 168°
2026-04-26 03:13 26.23318 113.93851 27759 ft 509 kts 168°
2026-04-26 03:14 26.19926 113.94830 27766 ft 509 kts 168°
2026-04-26 03:14 26.16465 113.95828 27764 ft 509 kts 168°
2026-04-26 03:14 26.13031 113.96817 27776 ft 509 kts 168°
2026-04-26 03:14 26.09622 113.97798 27770 ft 509 kts 168°
2026-04-26 03:15 26.06201 113.98782 27776 ft 508 kts 168°
2026-04-26 03:15 26.02743 113.99606 27774 ft 504 kts 176°
2026-04-26 03:15 25.99267 113.99625 27770 ft 496 kts 190°
2026-04-26 03:15 25.95835 113.99061 27755 ft 495 kts 193°
2026-04-26 03:16 25.92438 113.98463 27745 ft 495 kts 193°
2026-04-26 03:16 25.89010 113.97867 27736 ft 495 kts 193°
2026-04-26 03:16 25.85616 113.97277 27730 ft 495 kts 193°
2026-04-26 03:16 25.82217 113.96687 27720 ft 495 kts 193°
2026-04-26 03:17 25.78797 113.96094 27701 ft 495 kts 193°
2026-04-26 03:17 25.75398 113.95505 27689 ft 495 kts 193°
2026-04-26 03:17 25.71996 113.94916 27685 ft 495 kts 193°
2026-04-26 03:17 25.68576 113.94325 27695 ft 495 kts 193°
2026-04-26 03:18 25.65166 113.93736 27697 ft 494 kts 193°
2026-04-26 03:18 25.61778 113.93152 27705 ft 494 kts 193°
2026-04-26 03:18 25.58362 113.92563 27709 ft 494 kts 193°
2026-04-26 03:18 25.54977 113.91979 27713 ft 493 kts 193°
2026-04-26 03:19 25.51539 113.91387 27715 ft 493 kts 192°
2026-04-26 03:19 25.48172 113.90808 27721 ft 493 kts 193°
2026-04-26 03:19 25.44744 113.90218 27712 ft 493 kts 192°
2026-04-26 03:19 25.41386 113.89642 27707 ft 492 kts 192°
2026-04-26 03:20 25.37996 113.89059 27710 ft 492 kts 193°
2026-04-26 03:20 25.34574 113.88473 27705 ft 493 kts 192°
2026-04-26 03:20 25.31195 113.87893 27701 ft 493 kts 192°
2026-04-26 03:20 25.27803 113.87312 27694 ft 493 kts 192°
2026-04-26 03:21 25.24414 113.86732 27682 ft 493 kts 193°
2026-04-26 03:21 25.21014 113.86150 27676 ft 493 kts 193°
2026-04-26 03:21 25.17654 113.85575 27663 ft 492 kts 192°
2026-04-26 03:21 25.14270 113.84997 27660 ft 492 kts 193°
2026-04-26 03:22 25.10871 113.84416 27651 ft 491 kts 192°
2026-04-26 03:22 25.07464 113.83835 27646 ft 491 kts 192°
2026-04-26 03:22 25.04119 113.83265 27641 ft 491 kts 192°
2026-04-26 03:22 25.00744 113.82690 27636 ft 491 kts 192°
2026-04-26 03:23 24.97349 113.82112 27632 ft 491 kts 192°
2026-04-26 03:23 24.93965 113.81535 27532 ft 492 kts 192°
2026-04-26 03:23 24.90587 113.80962 27328 ft 483 kts 192°
2026-04-26 03:23 24.87308 113.80408 27103 ft 473 kts 192°
2026-04-26 03:24 24.84064 113.79858 26869 ft 467 kts 192°
2026-04-26 03:24 24.80850 113.79313 26635 ft 464 kts 192°
2026-04-26 03:24 24.77669 113.78773 26400 ft 461 kts 192°
2026-04-26 03:24 24.74519 113.78238 26166 ft 459 kts 192°
2026-04-26 03:25 24.71350 113.77701 25929 ft 456 kts 192°
2026-04-26 03:25 24.68193 113.77166 25694 ft 455 kts 192°
2026-04-26 03:25 24.65094 113.76641 25457 ft 453 kts 192°
2026-04-26 03:25 24.61989 113.76115 25218 ft 451 kts 192°
2026-04-26 03:26 24.58867 113.75587 24982 ft 449 kts 192°
2026-04-26 03:26 24.55788 113.75066 24744 ft 447 kts 192°
2026-04-26 03:26 24.52702 113.74544 24506 ft 445 kts 192°
2026-04-26 03:26 24.49665 113.74030 24273 ft 443 kts 192°
2026-04-26 03:27 24.46635 113.73518 24033 ft 442 kts 192°
2026-04-26 03:27 24.43567 113.73000 23785 ft 440 kts 192°
2026-04-26 03:27 24.40553 113.72492 23542 ft 438 kts 192°
2026-04-26 03:27 24.37552 113.71986 23304 ft 436 kts 192°
2026-04-26 03:28 24.34553 113.71486 23065 ft 434 kts 191°
2026-04-26 03:28 24.31572 113.70989 22823 ft 432 kts 192°
2026-04-26 03:28 24.28598 113.70486 22583 ft 430 kts 192°
2026-04-26 03:28 24.25642 113.69984 22342 ft 429 kts 192°
2026-04-26 03:29 24.22702 113.69485 22109 ft 427 kts 192°
2026-04-26 03:29 24.19744 113.68984 21870 ft 425 kts 192°
2026-04-26 03:29 24.16845 113.68492 21643 ft 423 kts 191°
2026-04-26 03:29 24.13920 113.67996 21409 ft 422 kts 192°
2026-04-26 03:30 24.11003 113.67503 21176 ft 420 kts 191°
2026-04-26 03:30 24.08140 113.67019 20946 ft 418 kts 191°
2026-04-26 03:30 24.05267 113.66533 20714 ft 417 kts 191°
2026-04-26 03:30 24.02381 113.66045 20483 ft 416 kts 191°
2026-04-26 03:31 23.99525 113.65562 20254 ft 414 kts 191°
2026-04-26 03:31 23.96706 113.65086 20029 ft 412 kts 191°
2026-04-26 03:31 23.93849 113.64604 19796 ft 410 kts 191°
2026-04-26 03:31 23.91042 113.64130 19567 ft 408 kts 191°
2026-04-26 03:32 23.88242 113.63658 19337 ft 407 kts 191°
2026-04-26 03:32 23.85416 113.63182 19101 ft 405 kts 191°
2026-04-26 03:32 23.82655 113.62717 18873 ft 403 kts 191°
2026-04-26 03:32 23.79914 113.62091 18636 ft 399 kts 200°
2026-04-26 03:33 23.77435 113.60754 18385 ft 395 kts 213°
2026-04-26 03:33 23.75105 113.59155 18141 ft 394 kts 214°
2026-04-26 03:33 23.72780 113.57569 17907 ft 393 kts 214°
2026-04-26 03:33 23.70475 113.55999 17816 ft 391 kts 213°
2026-04-26 03:34 23.68157 113.54423 17810 ft 391 kts 213°
2026-04-26 03:34 23.65856 113.52858 17806 ft 392 kts 214°
2026-04-26 03:34 23.63532 113.51277 17777 ft 393 kts 214°
2026-04-26 03:34 23.61218 113.49703 17730 ft 392 kts 213°
2026-04-26 03:35 23.58791 113.48349 17661 ft 394 kts 200°
2026-04-26 03:35 23.56113 113.47564 17590 ft 394 kts 195°
2026-04-26 03:35 23.53447 113.46847 17433 ft 392 kts 195°
2026-04-26 03:35 23.50833 113.46137 17200 ft 385 kts 195°
2026-04-26 03:36 23.48269 113.45443 16950 ft 376 kts 195°
2026-04-26 03:36 23.45740 113.44758 16711 ft 367 kts 195°
2026-04-26 03:36 23.43280 113.44092 16466 ft 359 kts 195°
2026-04-26 03:36 23.40872 113.43439 16213 ft 352 kts 195°
2026-04-26 03:37 23.38528 113.42806 15974 ft 345 kts 195°
2026-04-26 03:37 23.36216 113.42181 15734 ft 338 kts 195°
2026-04-26 03:37 23.33960 113.41570 15484 ft 330 kts 195°
2026-04-26 03:37 23.31735 113.40968 15236 ft 324 kts 195°
2026-04-26 03:38 23.29573 113.40384 14983 ft 317 kts 195°
2026-04-26 03:38 23.27450 113.39811 14706 ft 311 kts 195°
2026-04-26 03:38 23.25365 113.39248 14400 ft 305 kts 195°
2026-04-26 03:38 23.23333 113.38699 14093 ft 300 kts 195°
2026-04-26 03:39 23.21300 113.38150 13784 ft 296 kts 196°
2026-04-26 03:39 23.19325 113.37616 13469 ft 292 kts 196°
2026-04-26 03:39 23.17356 113.37084 13155 ft 289 kts 195°
2026-04-26 03:39 23.15397 113.36556 12819 ft 287 kts 195°
2026-04-26 03:40 23.13486 113.36040 12487 ft 284 kts 196°
2026-04-26 03:40 23.11575 113.35524 12142 ft 282 kts 196°
2026-04-26 03:40 23.09662 113.35008 11815 ft 280 kts 196°
2026-04-26 03:40 23.07784 113.34501 11488 ft 278 kts 195°
2026-04-26 03:41 23.05885 113.33989 11155 ft 276 kts 195°
2026-04-26 03:41 23.04016 113.33485 10822 ft 275 kts 195°
2026-04-26 03:41 23.02171 113.32988 10489 ft 273 kts 195°
2026-04-26 03:41 23.00344 113.32496 10244 ft 263 kts 195°
2026-04-26 03:42 22.98654 113.32043 10303 ft 245 kts 195°
2026-04-26 03:42 22.96969 113.31588 10119 ft 249 kts 195°
2026-04-26 03:42 22.95286 113.31135 9869 ft 246 kts 195°
2026-04-26 03:42 22.93662 113.30649 9616 ft 241 kts 202°
2026-04-26 03:43 22.92298 113.29649 9313 ft 234 kts 228°
2026-04-26 03:43 22.91480 113.28148 8910 ft 232 kts 253°
2026-04-26 03:43 22.91341 113.26441 8469 ft 227 kts 277°
2026-04-26 03:43 22.91681 113.24797 8046 ft 224 kts 285°
2026-04-26 03:44 22.92060 113.23186 7837 ft 222 kts 284°
2026-04-26 03:44 22.92520 113.21586 7812 ft 222 kts 296°
2026-04-26 03:44 22.93511 113.20303 7817 ft 224 kts 323°
2026-04-26 03:44 22.94969 113.19738 7818 ft 226 kts 356°
2026-04-26 03:45 22.96535 113.19913 7602 ft 227 kts 11°
2026-04-26 03:45 22.98076 113.20294 7407 ft 226 kts 12°
2026-04-26 03:45 22.99603 113.20695 7094 ft 227 kts 13°
2026-04-26 03:45 23.01141 113.21105 6848 ft 225 kts 13°
2026-04-26 03:46 23.02667 113.21515 6534 ft 224 kts 14°
2026-04-26 03:46 23.04149 113.21912 6272 ft 217 kts 14°
2026-04-26 03:46 23.05612 113.22307 5980 ft 212 kts 14°
2026-04-26 03:47 23.08430 113.23065 5463 ft 202 kts 14°
2026-04-26 03:47 23.09793 113.23433 5203 ft 200 kts 14°
2026-04-26 03:47 23.11139 113.23796 4952 ft 198 kts 14°
2026-04-26 03:47 23.12468 113.24154 4699 ft 196 kts 14°
2026-04-26 03:48 23.13791 113.24512 4447 ft 195 kts 14°
2026-04-26 03:48 23.15118 113.24869 4200 ft 194 kts 15°
2026-04-26 03:48 23.16423 113.25221 3953 ft 193 kts 15°
2026-04-26 03:48 23.17719 113.25571 3710 ft 192 kts 15°
2026-04-26 03:49 23.19005 113.25918 3477 ft 185 kts 15°
2026-04-26 03:49 23.20240 113.26251 3246 ft 182 kts 15°
2026-04-26 03:49 23.21473 113.26585 3014 ft 180 kts 15°
2026-04-26 03:49 23.22698 113.26916 2787 ft 180 kts 16°
2026-04-26 03:50 23.23906 113.27242 2560 ft 179 kts 15°
2026-04-26 03:50 23.25115 113.27569 2331 ft 179 kts 15°
2026-04-26 03:50 23.26319 113.27894 2106 ft 173 kts 15°
2026-04-26 03:50 23.27466 113.28204 1887 ft 169 kts 15°
2026-04-26 03:51 23.28616 113.28515 1672 ft 168 kts 15°
2026-04-26 03:51 23.29747 113.28821 1459 ft 167 kts 15°
2026-04-26 03:51 23.30870 113.29125 1249 ft 166 kts 15°
2026-04-26 03:51 23.31994 113.29429 1036 ft 165 kts 15°
2026-04-26 03:52 23.33103 113.29730 829 ft 161 kts 15°
2026-04-26 03:52 23.34123 113.30003 665 ft 144 kts 15°
2026-04-26 03:52 23.35100 113.30267 439 ft 145 kts 15°
2026-04-26 03:52 23.36085 113.30544 284 ft 145 kts 14°
2026-04-26 03:53 23.37053 113.30792 82 ft 142 kts 15°
2026-04-26 03:53 23.37926 113.31033 53 ft 100 kts 15°
2026-04-26 03:53 23.38475 113.31179 53 ft 69 kts 12°
2026-04-26 03:53 23.38749 113.31182 53 ft 26 kts 346°
2026-04-26 03:54 23.38853 113.31139 53 ft 12 kts 304°
2026-04-26 03:54 23.38856 113.31098 53 ft 0 kts 245°
2026-04-26 03:55 23.38821 113.31073 53 ft 15 kts 199°
2026-04-26 03:55 23.38700 113.31040 53 ft 17 kts 192°
2026-04-26 03:55 23.38567 113.31010 53 ft 21 kts 194°
2026-04-26 03:56 23.38414 113.30965 53 ft 24 kts 192°
2026-04-26 03:56 23.38260 113.30925 53 ft 16 kts 195°
2026-04-26 03:56 23.38139 113.30890 53 ft 19 kts 194°
2026-04-26 03:56 23.37996 113.30853 53 ft 22 kts 192°
2026-04-26 03:57 23.37849 113.30817 53 ft 18 kts 197°
2026-04-26 03:57 23.37713 113.30776 53 ft 18 kts 195°
2026-04-26 03:57 23.37576 113.30737 53 ft 20 kts 194°
2026-04-26 03:57 23.37436 113.30700 53 ft 20 kts 194°
2026-04-26 03:58 23.37302 113.30662 53 ft 19 kts 194°
2026-04-26 03:58 23.37178 113.30631 53 ft 18 kts 192°
2026-04-26 03:58 23.37060 113.30601 53 ft 15 kts 194°
2026-04-26 03:58 23.36950 113.30568 53 ft 18 kts 195°
2026-04-26 03:59 23.36815 113.30535 53 ft 21 kts 195°
2026-04-26 03:59 23.36685 113.30479 53 ft 19 kts 202°
2026-04-26 03:59 23.36647 113.30383 53 ft 13 kts 282°
2026-04-26 03:59 23.36671 113.30273 53 ft 14 kts 284°
2026-04-26 04:00 23.36696 113.30162 53 ft 14 kts 284°
2026-04-26 04:00 23.36717 113.30064 53 ft 11 kts 272°
2026-04-26 04:00 23.36658 113.30013 53 ft 13 kts 195°
2026-04-26 04:00 23.36622 113.29952 53 ft 11 kts 287°
2026-04-26 04:01 23.36663 113.29932 53 ft 7 kts 14°
2026-04-26 04:01 23.36688 113.29939 53 ft 0 kts 15°